Location: Praha
(50.0830°N, 14.4670°E)
Time: 19:57:09
(UTC+02:00)

ISS - Pass Details

Date: 29 April 2021
Orbit: 418 x 422 km, 51.6° (Epoch: 13 April)

Event Time Altitude Azimuth Distance (km) Brightness Sun altitude
Exits shadow 05:03:11 - 224° (SW) 1,685 -1.3 -6.3°
Reaches altitude 10° 05:03:40 10° 222° (SW) 1,501 -1.6 -6.2°
Maximum altitude 05:06:51 40° 151° (SSE) 632 -2.9 -5.8°
Drops below altitude 10° 05:10:03 10° 80° (E) 1,509 0.5 -5.4°
Sets 05:12:13 0° 73° (ENE) 2,376 2.1 -5.1°
